| time (UTC) | temp F | wind direction | speed knots | gust knots | rain 1hr in | rain 24hr in | rain mn in | humidity % | barometer mb |
| 20260509135203 | 58 | 90 | 6.1 | 13.9 | 0.00 | 0.00 | 0.02 | 98 | 1048.5 |
| 20260509135003 | 59 | 90 | 5.2 | 13.9 | 0.00 | 0.00 | 0.02 | 98 | 1490.2 |
| 20260509134204 | 59 | 45 | 3.5 | 9.6 | 0.00 | 0.00 | 0.02 | 98 | 1047.9 |
| 20260509134003 | 59 | 180 | 5.2 | 19.1 | 0.00 | 0.00 | 0.02 | 98 | 1047.6 |
| 20260509133201 | 60 | 180 | 6.1 | 7.8 | 0.00 | 0.00 | 0.02 | 98 | 1046.9 |
| 20260509132202 | 60 | 90 | 7.0 | 9.6 | 0.00 | 0.00 | 0.02 | 98 | 1044.0 |
| 20260509132003 | 61 | 180 | 4.3 | 13.9 | 0.00 | 0.00 | 0.02 | 98 | 1043.6 |
| 20260509131203 | 60 | 135 | 5.2 | 10.4 | 0.00 | 0.00 | 0.02 | 98 | 1043.0 |
| 20260509131003 | 60 | 90 | 3.5 | 10.4 | 0.00 | 0.00 | 0.02 | 98 | 1043.3 |
| 20260509130201 | 60 | 90 | 4.3 | 11.3 | 0.00 | 0.00 | 0.02 | 98 | 1044.5 |
| 20260509130001 | 60 | 135 | 3.5 | 9.6 | 0.00 | 0.00 | 0.02 | 98 | 1044.4 |
| 20260509125203 | 60 | 90 | 3.5 | 7.0 | 0.00 | 0.00 | 0.02 | 98 | 1044.8 |
| 20260509125003 | 60 | 45 | 2.6 | 11.3 | 0.00 | 0.00 | 0.02 | 98 | 1044.7 |
| 20260509124201 | 60 | 90 | 1.7 | 3.5 | 0.00 | 0.00 | 0.02 | 98 | 1043.8 |
| 20260509124001 | 60 | 135 | 2.6 | 7.8 | 0.00 | 0.00 | 0.02 | 98 | 1043.6 |
| 20260509123203 | 60 | 135 | 1.7 | 3.5 | 0.00 | 0.00 | 0.02 | 98 | 1042.9 |
| 20260509123003 | 60 | 0 | 2.6 | 10.4 | 0.00 | 0.00 | 0.02 | 98 | 1042.9 |
| 20260509122201 | 60 | 90 | 2.6 | 5.2 | 0.00 | 0.00 | 0.02 | 98 | 1042.2 |
| 20260509122001 | 60 | 90 | 2.6 | 7.8 | 0.00 | 0.00 | 0.02 | 98 | 1042.3 |
| 20260509121203 | 60 | 90 | 2.6 | 4.3 | 0.00 | 0.00 | 0.02 | 98 | 1043.9 |
| 20260509121004 | 60 | 90 | 1.7 | 4.3 | 0.00 | 0.00 | 0.02 | 98 | 1044.2 |
| 20260509120205 | 60 | 45 | 0.9 | 3.5 | 0.00 | 0.00 | 0.02 | 98 | 1045.2 |
| 20260509120005 | 60 | 135 | 1.7 | 4.3 | 0.00 | 0.00 | 0.02 | 98 | 1045.4 |
| 20260509115201 | 60 | 45 | 0.0 | 0.0 | 0.00 | 0.00 | 0.02 | 98 | 1046.0 |
| 20260509115001 | 59 | 45 | 0.0 | 1.7 | 0.00 | 0.00 | 0.02 | 98 | 1046.1 |
| 20260509114203 | 59 | 0 | 0.0 | 1.7 | 0.00 | 0.00 | 0.02 | 98 | 1046.4 |
| 20260509114004 | 59 | 0 | 0.9 | 5.2 | 0.00 | 0.00 | 0.02 | 98 | 1046.6 |
| 20260509113201 | 59 | 180 | 0.9 | 3.5 | 0.00 | 0.00 | 0.02 | 98 | 1046.6 |
| 20260509113001 | 59 | 135 | 0.9 | 7.0 | 0.00 | 0.00 | 0.02 | 98 | 1046.6 |
| 20260509112204 | 59 | 45 | 0.9 | 4.3 | 0.00 | 0.00 | 0.02 | 98 | 1046.9 |
| 20260509112004 | 59 | 45 | 0.0 | 1.7 | 0.00 | 0.00 | 0.02 | 98 | 1047.0 |
| 20260509111201 | 59 | 90 | 0.9 | 1.7 | 0.00 | 0.00 | 0.02 | 98 | 1046.9 |
| 20260509111002 | 59 | 45 | 0.0 | 3.5 | 0.00 | 0.00 | 0.02 | 98 | 566.0 |
| 20260509110203 | 59 | 45 | 1.7 | 5.2 | 0.00 | 0.00 | 0.02 | 98 | 1046.6 |
| 20260509110004 | 59 | 45 | 1.7 | 5.2 | 0.00 | 0.00 | 0.02 | 98 | 1046.6 |
| 20260509105201 | 59 | 90 | 1.7 | 3.5 | 0.00 | 0.00 | 0.02 | 98 | 1046.8 |
| 20260509105002 | 59 | 90 | 1.7 | 4.3 | 0.00 | 0.00 | 0.02 | 98 | 1046.9 |
| 20260509104203 | 59 | 45 | 3.5 | 7.0 | 0.00 | 0.00 | 0.02 | 98 | 1046.8 |
| 20260509104003 | 59 | 90 | 2.6 | 7.8 | 0.00 | 0.00 | 0.02 | 98 | 1046.8 |
| 20260509103202 | 58 | 45 | 0.9 | 1.7 | 0.00 | 0.00 | 0.02 | 98 | 2318.6 |
| 20260509103002 | 58 | 45 | 1.7 | 3.5 | 0.00 | 0.00 | 0.02 | 98 | 1047.2 |
| 20260509102204 | 58 | 90 | 1.7 | 5.2 | 0.00 | 0.00 | 0.02 | 98 | 2442.8 |
| 20260509102004 | 58 | 45 | 1.7 | 5.2 | 0.00 | 0.00 | 0.02 | 98 | 2442.8 |
| 20260509101202 | 58 | 45 | 1.7 | 3.5 | 0.00 | 0.00 | 0.02 | 98 | 2442.8 |
| 20260509101002 | 58 | 45 | 0.9 | 3.5 | 0.00 | 0.00 | 0.02 | 98 | 2442.8 |
| 20260509100204 | 58 | 45 | 3.5 | 7.0 | 0.00 | 0.00 | 0.02 | 98 | 547.7 |
| 20260509100005 | 58 | 45 | 3.5 | 7.0 | 0.00 | 0.00 | 0.02 | 98 | 1046.4 |
| 20260509095202 | 58 | 90 | 4.3 | 7.8 | 0.00 | 0.00 | 0.02 | 98 | 2442.8 |
| 20260509095002 | 58 | 45 | 3.5 | 9.6 | 0.00 | 0.00 | 0.02 | 98 | 547.4 |
| 20260509094204 | 58 | 45 | 2.6 | 7.0 | 0.00 | 0.00 | 0.02 | 98 | 1045.8 |
| 20260509094004 | 58 | 45 | 2.6 | 9.6 | 0.00 | 0.00 | 0.02 | 98 | 2318.2 |
| 20260509093202 | 58 | 45 | 0.9 | 3.5 | 0.00 | 0.00 | 0.02 | 98 | 2450.5 |
| 20260509093002 | 58 | 90 | 0.9 | 3.5 | 0.00 | 0.00 | 0.02 | 98 | 548.2 |
| 20260509092204 | 58 | 45 | 0.0 | 0.9 | 0.00 | 0.00 | 0.02 | 98 | 2450.5 |
| 20260509092004 | 58 | 45 | 0.0 | 1.7 | 0.00 | 0.00 | 0.02 | 98 | 2450.5 |
| 20260509091202 | 58 | 90 | 0.0 | 0.0 | 0.00 | 0.00 | 0.02 | 98 | 2318.2 |
| 20260509091002 | 58 | 0 | 0.0 | 0.0 | 0.00 | 0.00 | 0.02 | 98 | 2450.5 |
| 20260509090204 | 58 | 0 | 0.0 | 0.0 | 0.00 | 0.00 | 0.02 | 98 | 1336.0 |
| 20260509090004 | 58 | 0 | 0.0 | 1.7 | 0.00 | 0.00 | 0.02 | 98 | 547.6 |
| 20260509085202 | 58 | 0 | 0.0 | 0.0 | 0.00 | 0.00 | 0.02 | 98 | 2898.0 |
| 20260509085002 | 58 | 0 | 0.0 | 1.7 | 0.00 | 0.00 | 0.02 | 98 | 547.6 |
| 20260509084204 | 58 | 45 | 1.7 | 1.7 | 0.00 | 0.00 | 0.02 | 98 | 1046.8 |
| 20260509084004 | 58 | 45 | 0.0 | 1.7 | 0.00 | 0.00 | 0.02 | 98 | 1046.8 |
| 20260509083202 | 58 | 0 | 0.0 | 0.0 | 0.00 | 0.00 | 0.02 | 98 | 2450.5 |
| 20260509083002 | 58 | 0 | 0.0 | 0.9 | 0.00 | 0.00 | 0.02 | 98 | 1047.2 |
| 20260509082204 | 58 | 45 | 0.0 | 0.9 | 0.00 | 0.00 | 0.02 | 98 | 2450.5 |
| 20260509082004 | 58 | 45 | 0.9 | 3.5 | 0.00 | 0.00 | 0.02 | 98 | 2456.4 |
| 20260509081202 | 58 | 45 | 0.0 | 0.0 | 0.00 | 0.00 | 0.02 | 98 | 2317.7 |
| 20260509081002 | 58 | 0 | 0.0 | 0.0 | 0.00 | 0.00 | 0.02 | 98 | 2450.6 |
| 20260509080204 | 58 | 45 | 0.9 | 1.7 | 0.00 | 0.00 | 0.02 | 98 | 2317.7 |
| 20260509080004 | 58 | 45 | 0.9 | 1.7 | 0.00 | 0.00 | 0.02 | 98 | 1392.9 |
| 20260509075202 | 58 | 45 | 0.0 | 0.9 | 0.01 | 0.00 | 0.02 | 98 | 546.8 |
| 20260509075002 | 58 | 45 | 0.0 | 0.0 | 0.01 | 0.00 | 0.02 | 98 | 2317.8 |
| 20260509074204 | 58 | 0 | 0.0 | 0.0 | 0.01 | 0.00 | 0.02 | 98 | 2450.5 |
| 20260509074004 | 58 | 0 | 0.0 | 3.5 | 0.01 | 0.00 | 0.02 | 98 | 2317.7 |
| 20260509073202 | 58 | 45 | 0.0 | 3.5 | 0.01 | 0.00 | 0.02 | 98 | 1046.8 |
| 20260509073002 | 58 | 0 | 0.0 | 3.5 | 0.01 | 0.00 | 0.02 | 98 | 2317.9 |
| 20260509072204 | 58 | 135 | 0.0 | 1.7 | 0.01 | 0.00 | 0.02 | 98 | 1046.2 |
| 20260509072004 | 58 | 180 | 0.0 | 1.7 | 0.01 | 0.00 | 0.02 | 98 | 2318.0 |
| 20260509071202 | 58 | 0 | 0.0 | 0.0 | 0.01 | 0.00 | 0.02 | 98 | 2450.5 |
| 20260509071002 | 58 | 45 | 0.0 | 1.7 | 0.01 | 0.00 | 0.02 | 98 | 2450.5 |
| 20260509070204 | 58 | 0 | 0.0 | 0.9 | 0.01 | 0.00 | 0.02 | 98 | 1046.1 |
| 20260509070004 | 58 | 45 | 0.0 | 0.0 | 0.00 | 0.00 | 0.01 | 98 | 2318.3 |
| 20260509065202 | 58 | 45 | 0.9 | 1.7 | 0.00 | 0.00 | 0.01 | 98 | 1046.1 |
| 20260509065002 | 58 | 90 | 0.0 | 1.7 | 0.00 | 0.00 | 0.01 | 98 | 2318.4 |
| 20260509064204 | 58 | 0 | 0.0 | 0.0 | 0.00 | 0.00 | 0.01 | 98 | 3239.8 |
| 20260509064004 | 58 | 0 | 0.0 | 0.0 | 0.00 | 0.00 | 0.01 | 98 | 2450.5 |
| 20260509063202 | 58 | 0 | 0.0 | 0.0 | 0.00 | 0.00 | 0.01 | 98 | 2450.5 |
| 20260509063002 | 58 | 0 | 0.0 | 0.0 | 0.00 | 0.00 | 0.01 | 98 | 2450.5 |
| 20260509062204 | 58 | 0 | 0.0 | 0.0 | 0.00 | 0.00 | 0.01 | 98 | 2318.4 |
| 20260509062004 | 58 | 0 | 0.0 | 3.5 | 0.00 | 0.00 | 0.01 | 98 | 1046.1 |
| 20260509061202 | 58 | 45 | 1.7 | 3.5 | 0.00 | 0.00 | 0.01 | 98 | 1046.7 |
| 20260509061002 | 58 | 45 | 0.9 | 3.5 | 0.00 | 0.00 | 0.01 | 98 | 1046.0 |
| 20260509060204 | 58 | 0 | 0.0 | 0.0 | 0.00 | 0.00 | 0.01 | 98 | 1046.2 |
| 20260509060004 | 58 | 0 | 0.0 | 0.0 | 0.00 | 0.00 | 0.01 | 98 | 3239.8 |
| 20260509055202 | 58 | 0 | 0.9 | 1.7 | 0.00 | 0.00 | 0.01 | 98 | 2442.8 |
| 20260509055002 | 58 | 270 | 0.0 | 1.7 | 0.00 | 0.00 | 0.01 | 98 | 2442.8 |
| 20260509054204 | 58 | 45 | 0.0 | 0.0 | 0.00 | 0.00 | 0.01 | 98 | 1045.8 |
| 20260509054004 | 58 | 45 | 0.9 | 4.3 | 0.00 | 0.00 | 0.01 | 98 | 2442.8 |
| 20260509053202 | 58 | 45 | 2.6 | 4.3 | 0.00 | 0.00 | 0.01 | 98 | 1046.1 |
| 20260509053002 | 58 | 45 | 0.0 | 1.7 | 0.00 | 0.00 | 0.01 | 98 | 561.7 |
| 20260509052204 | 58 | 0 | 0.0 | 0.0 | 0.00 | 0.00 | 0.01 | 98 | 1845.0 |
| 20260509052004 | 58 | 90 | 0.0 | 1.7 | 0.00 | 0.00 | 0.01 | 98 | 2450.5 |
| 20260509051202 | 58 | 0 | 0.0 | 0.0 | 0.00 | 0.00 | 0.01 | 98 | 1046.7 |
| 20260509051002 | 58 | 180 | 0.0 | 1.7 | 0.00 | 0.00 | 0.01 | 98 | 3239.8 |
| 20260509050204 | 58 | 315 | 0.0 | 0.9 | 0.00 | 0.00 | 0.01 | 98 | 1047.0 |
| 20260509050004 | 58 | 0 | 0.0 | 0.9 | 0.00 | 0.00 | 0.01 | 98 | 560.1 |
| 20260509045202 | 58 | 45 | 0.0 | 0.9 | 0.00 | 0.00 | 0.01 | 98 | 2317.6 |
| 20260509045002 | 58 | 45 | 0.0 | 1.7 | 0.00 | 0.00 | 0.01 | 98 | 559.9 |
| 20260509044204 | 58 | 0 | 0.0 | 0.9 | 0.00 | 0.00 | 0.01 | 98 | 2450.5 |
| 20260509044004 | 58 | 0 | 0.0 | 1.7 | 0.00 | 0.00 | 0.01 | 98 | 2450.5 |
| 20260509043202 | 58 | 0 | 0.0 | 0.0 | 0.00 | 0.00 | 0.01 | 98 | 1942.3 |
| 20260509043002 | 58 | 0 | 0.0 | 1.7 | 0.00 | 0.00 | 0.01 | 98 | 1047.5 |
| 20260509042205 | 58 | 45 | 0.0 | 1.7 | 0.00 | 0.00 | 0.01 | 98 | 1047.5 |
| 20260509042004 | 58 | 90 | 0.9 | 3.5 | 0.00 | 0.00 | 0.01 | 98 | 1047.5 |
| 20260509041202 | 58 | 45 | 0.0 | 0.0 | 0.00 | 0.00 | 0.01 | 98 | 3239.9 |
| 20260509041002 | 58 | 45 | 0.9 | 1.7 | 0.00 | 0.00 | 0.01 | 98 | 2450.5 |
| 20260509040204 | 58 | 0 | 0.0 | 0.0 | 0.00 | 0.00 | 0.01 | 98 | 1047.1 |
| 20260509040005 | 58 | 45 | 0.0 | 1.7 | 0.00 | 0.00 | 0.01 | 98 | 2450.5 |
| 20260509035104 | 58 | 45 | 0.0 | 0.0 | 0.01 | 0.00 | 0.01 | 98 | 2442.8 |
| 20260509035000 | 58 | 45 | 0.9 | 3.5 | 0.01 | 0.00 | 0.01 | 98 | 1069.5 |
| 20260509034203 | 58 | 135 | 0.0 | 1.7 | 0.01 | 0.00 | 0.01 | 98 | 2442.8 |
| 20260509034003 | 58 | 45 | 0.0 | 0.9 | 0.01 | 0.00 | 0.01 | 98 | 2442.8 |
| 20260509033204 | 58 | 45 | 0.0 | 1.7 | 0.01 | 0.00 | 0.01 | 98 | 2318.2 |
| 20260509033004 | 58 | 225 | 0.0 | 1.7 | 0.01 | 0.00 | 0.01 | 98 | 2318.2 |
| 20260509032202 | 58 | 45 | 0.0 | 0.9 | 0.00 | 0.00 | 0.00 | 98 | 1068.4 |
| 20260509032002 | 58 | 90 | 0.0 | 0.9 | 0.00 | 0.00 | 0.00 | 98 | 2318.4 |
| 20260509031204 | 58 | 90 | 0.0 | 1.7 | 0.00 | 0.00 | 0.00 | 98 | 1046.3 |
| 20260509031004 | 58 | 0 | 0.0 | 0.9 | 0.00 | 0.00 | 0.00 | 98 | 1046.3 |
| 20260509030105 | 58 | 0 | 0.0 | 0.9 | 0.00 | 0.00 | 0.00 | 98 | 1069.0 |
| 20260509030000 | 58 | 135 | 0.0 | 1.7 | 0.00 | 0.00 | 0.00 | 98 | 2318.1 |
| 20260509025203 | 58 | 135 | 0.0 | 0.0 | 0.00 | 0.00 | 0.36 | 98 | 1046.2 |
| 20260509025003 | 58 | 45 | 0.0 | 0.0 | 0.00 | 0.00 | 0.36 | 98 | 2450.5 |
| 20260509024104 | 58 | 0 | 0.0 | 0.0 | 0.00 | 0.00 | 0.36 | 98 | 1393.0 |
| 20260509024000 | 58 | 45 | 0.0 | 0.0 | 0.00 | 0.00 | 0.36 | 98 | 1392.9 |
| 20260509023203 | 58 | 0 | 0.0 | 0.0 | 0.00 | 0.00 | 0.36 | 98 | 2450.5 |
| 20260509023003 | 58 | 0 | 0.0 | 0.9 | 0.00 | 0.00 | 0.36 | 98 | 1071.9 |
| 20260509022104 | 58 | 45 | 1.7 | 1.7 | 0.00 | 0.00 | 0.36 | 98 | 1048.4 |
| 20260509022000 | 58 | 45 | 2.6 | 4.3 | 0.00 | 0.00 | 0.36 | 98 | 2318.1 |
| 20260509021203 | 58 | 45 | 0.0 | 0.9 | 0.00 | 0.00 | 0.36 | 98 | 1046.6 |
| 20260509021003 | 58 | 0 | 1.7 | 7.0 | 0.00 | 0.00 | 0.36 | 98 | 2316.8 |
| 20260509020104 | 58 | 180 | 0.9 | 0.9 | 0.00 | 0.00 | 0.36 | 98 | 1047.1 |
| 20260509020000 | 58 | 315 | 0.0 | 1.7 | 0.00 | 0.00 | 0.36 | 98 | 2318.2 |
| 20260509015104 | 58 | 90 | 0.0 | 0.0 | 0.00 | 0.00 | 0.36 | 98 | 2318.2 |
| 20260509015000 | 58 | 0 | 0.0 | 0.9 | 0.00 | 0.00 | 0.36 | 98 | 1046.0 |
| 20260509014104 | 58 | 270 | 0.0 | 0.9 | 0.00 | 0.00 | 0.36 | 98 | 1047.0 |
| 20260509014000 | 58 | 0 | 0.0 | 1.7 | 0.00 | 0.00 | 0.36 | 98 | 2318.1 |
| 20260509013203 | 58 | 0 | 0.0 | 0.0 | 0.00 | 0.00 | 0.36 | 98 | 2450.5 |
| 20260509013003 | 58 | 0 | 0.0 | 0.9 | 0.00 | 0.00 | 0.36 | 98 | 547.8 |
| 20260509012104 | 58 | 0 | 0.0 | 1.7 | 0.00 | 0.00 | 0.36 | 98 | 1046.9 |
| 20260509012000 | 58 | 0 | 0.0 | 1.7 | 0.00 | 0.00 | 0.36 | 98 | 1046.9 |
| 20260509011203 | 58 | 315 | 0.0 | 0.9 | 0.00 | 0.00 | 0.36 | 98 | 2450.5 |
| 20260509011005 | 58 | 315 | 0.0 | 0.0 | 0.00 | 0.00 | 0.36 | 98 | 2450.5 |
| 20260509010205 | 57 | 0 | 0.0 | 0.0 | 0.00 | 0.00 | 0.36 | 98 | 2450.6 |
| 20260509010004 | 57 | 0 | 0.0 | 3.5 | 0.00 | 0.00 | 0.36 | 98 | 1185.5 |
| 20260509005203 | 58 | 45 | 0.0 | 1.7 | 0.00 | 0.00 | 0.36 | 98 | 548.2 |
| 20260509005002 | 58 | 0 | 0.0 | 0.0 | 0.00 | 0.00 | 0.36 | 98 | 1480.6 |
| 20260509004204 | 58 | 45 | 0.0 | 0.0 | 0.00 | 0.00 | 0.36 | 98 | 2450.5 |
| 20260509004004 | 58 | 45 | 0.0 | 0.9 | 0.00 | 0.00 | 0.36 | 98 | 1046.7 |
| 20260509003205 | 58 | 0 | 0.0 | 0.0 | 0.00 | 0.00 | 0.36 | 98 | 2318.1 |
| 20260509003004 | 58 | 0 | 0.0 | 0.0 | 0.00 | 0.00 | 0.36 | 98 | 2318.1 |
| 20260509002205 | 58 | 0 | 0.0 | 0.0 | 0.00 | 0.00 | 0.36 | 98 | 2318.1 |
| 20260509002005 | 58 | 0 | 0.0 | 0.0 | 0.00 | 0.00 | 0.36 | 98 | 2450.5 |
| 20260509001202 | 58 | 0 | 0.0 | 0.0 | 0.00 | 0.00 | 0.36 | 98 | 2450.5 |
| 20260509001003 | 58 | 0 | 0.0 | 1.7 | 0.00 | 0.00 | 0.36 | 98 | 2450.5 |
| 20260509000204 | 58 | 180 | 0.0 | 1.7 | 0.00 | 0.00 | 0.36 | 98 | 2450.5 |
| 20260509000004 | 58 | 225 | 0.0 | 0.0 | 0.00 | 0.00 | 0.36 | 98 | 1182.4 |
| 20260508235206 | 58 | 0 | 0.0 | 0.9 | 0.01 | 0.00 | 0.36 | 98 | 2318.1 |
| 20260508235005 | 58 | 0 | 0.0 | 1.7 | 0.01 | 0.00 | 0.36 | 98 | 2450.5 |
| 20260508234202 | 58 | 90 | 0.9 | 3.5 | 0.01 | 0.00 | 0.36 | 98 | 2318.3 |
| 20260508233205 | 58 | 45 | 0.0 | 1.7 | 0.01 | 0.00 | 0.36 | 98 | 2442.8 |
| 20260508233005 | 58 | 45 | 0.0 | 3.5 | 0.01 | 0.00 | 0.36 | 98 | 1045.6 |
| 20260508232202 | 58 | 45 | 0.0 | 0.0 | 0.01 | 0.00 | 0.36 | 98 | 2318.6 |
| 20260508232003 | 58 | 0 | 0.0 | 0.0 | 0.01 | 0.00 | 0.36 | 98 | 2442.8 |
| 20260508231204 | 58 | 0 | 0.0 | 0.0 | 0.01 | 0.00 | 0.36 | 98 | 1045.9 |
| 20260508231004 | 58 | 315 | 0.0 | 0.0 | 0.00 | 0.00 | 0.35 | 98 | 1048.5 |
| 20260508230203 | 58 | 0 | 0.0 | 0.0 | 0.00 | 0.00 | 0.35 | 98 | 2318.7 |
| 20260508230003 | 58 | 0 | 0.0 | 0.9 | 0.00 | 0.00 | 0.35 | 98 | 2442.8 |
| 20260508225205 | 58 | 0 | 0.0 | 0.0 | 0.00 | 0.00 | 0.35 | 98 | 2442.8 |
| 20260508225005 | 58 | 180 | 0.0 | 0.0 | 0.00 | 0.00 | 0.35 | 98 | 2442.8 |
| 20260508224204 | 58 | 0 | 0.0 | 0.0 | 0.00 | 0.00 | 0.35 | 98 | 548.6 |
| 20260508224004 | 58 | 0 | 0.0 | 0.9 | 0.00 | 0.00 | 0.35 | 98 | 2442.8 |
| 20260508223105 | 58 | 0 | 0.0 | 0.0 | 0.00 | 0.00 | 0.35 | 98 | 1045.6 |
| 20260508223000 | 58 | 0 | 0.0 | 0.0 | 0.00 | 0.00 | 0.35 | 98 | 2319.7 |
| 20260508222204 | 58 | 0 | 0.0 | 0.0 | 0.00 | 0.00 | 0.35 | 98 | 1045.7 |
| 20260508222004 | 58 | 0 | 0.0 | 1.7 | 0.00 | 0.00 | 0.35 | 98 | 563.0 |
| 20260508221203 | 58 | 270 | 0.0 | 0.9 | 0.00 | 0.00 | 0.35 | 98 | 562.9 |
| 20260508221004 | 58 | 315 | 0.0 | 0.9 | 0.00 | 0.00 | 0.35 | 98 | 1045.8 |
| 20260508220104 | 58 | 315 | 0.9 | 1.7 | 0.00 | 0.00 | 0.35 | 98 | 1046.0 |
| 20260508220000 | 58 | 270 | 0.0 | 1.7 | 0.00 | 0.00 | 0.35 | 98 | 2318.3 |
| 20260508215104 | 58 | 0 | 0.0 | 0.0 | 0.00 | 0.00 | 0.35 | 98 | 1182.4 |
| 20260508215000 | 58 | 45 | 0.0 | 0.0 | 0.00 | 0.00 | 0.35 | 98 | 2442.8 |
| 20260508214203 | 58 | 45 | 0.0 | 0.0 | 0.00 | 0.00 | 0.35 | 98 | 2456.4 |
| 20260508214002 | 58 | 0 | 0.0 | 1.7 | 0.00 | 0.00 | 0.35 | 98 | 546.9 |
| 20260508213205 | 58 | 0 | 0.0 | 0.9 | 0.00 | 0.00 | 0.35 | 98 | 546.1 |
| 20260508213005 | 58 | 90 | 0.0 | 0.9 | 0.00 | 0.00 | 0.35 | 98 | 2442.8 |
| 20260508212105 | 58 | 0 | 0.0 | 0.0 | 0.00 | 0.00 | 0.35 | 98 | 2317.8 |
| 20260508212000 | 58 | 0 | 0.0 | 3.5 | 0.00 | 0.00 | 0.35 | 98 | 2317.8 |
| 20260508211204 | 58 | 0 | 0.0 | 0.0 | 0.00 | 0.00 | 0.35 | 98 | 1068.1 |
| 20260508211004 | 58 | 45 | 0.0 | 1.7 | 0.00 | 0.00 | 0.35 | 98 | 1045.6 |
| 20260508210105 | 58 | 90 | 0.0 | 0.9 | 0.00 | 0.00 | 0.35 | 98 | 2318.0 |
| 20260508210000 | 58 | 45 | 0.0 | 1.7 | 0.02 | 0.00 | 0.35 | 98 | 2318.0 |
| 20260508205204 | 58 | 90 | 0.9 | 1.7 | 0.02 | 0.00 | 0.35 | 98 | 562.0 |
| 20260508205004 | 58 | 45 | 0.0 | 1.7 | 0.02 | 0.00 | 0.35 | 98 | 1044.9 |
| 20260508204204 | 58 | 45 | 0.9 | 1.7 | 0.02 | 0.00 | 0.35 | 98 | 1045.0 |
| 20260508204004 | 58 | 90 | 0.0 | 3.5 | 0.02 | 0.00 | 0.35 | 98 | 1045.0 |
| 20260508203206 | 58 | 45 | 0.9 | 1.7 | 0.02 | 0.00 | 0.35 | 98 | 1045.2 |
| 20260508203005 | 58 | 90 | 0.9 | 3.5 | 0.02 | 0.00 | 0.35 | 98 | 1045.4 |
| 20260508202203 | 58 | 90 | 0.0 | 1.7 | 0.02 | 0.00 | 0.35 | 98 | 1045.2 |
| 20260508202003 | 58 | 135 | 0.9 | 5.2 | 0.02 | 0.00 | 0.35 | 98 | 1045.3 |
| 20260508201205 | 58 | 270 | 2.6 | 4.3 | 0.02 | 0.00 | 0.35 | 98 | 1045.0 |
| 20260508201005 | 58 | 0 | 0.0 | 1.7 | 0.01 | 0.00 | 0.34 | 98 | 1044.9 |
| 20260508200203 | 58 | 225 | 0.0 | 1.7 | 0.00 | 0.00 | 0.33 | 98 | 1044.7 |
| 20260508200003 | 58 | 90 | 0.0 | 1.7 | 0.00 | 0.00 | 0.33 | 98 | 1044.4 |
| 20260508195205 | 58 | 0 | 0.0 | 0.9 | 0.06 | 0.00 | 0.33 | 98 | 1044.3 |
| 20260508195005 | 59 | 270 | 0.0 | 1.7 | 0.05 | 0.00 | 0.32 | 98 | 1044.4 |
| 20260508194203 | 59 | 180 | 2.6 | 5.2 | 0.02 | 0.00 | 0.29 | 98 | 1044.1 |
| 20260508194003 | 59 | 270 | 1.7 | 4.3 | 0.01 | 0.00 | 0.28 | 98 | 1043.7 |
| 20260508193205 | 59 | 90 | 1.7 | 3.5 | 0.00 | 0.00 | 0.27 | 98 | 1044.2 |
| 20260508193005 | 59 | 270 | 0.9 | 4.3 | 0.00 | 0.00 | 0.27 | 98 | 1043.9 |
| 20260508192203 | 59 | 45 | 0.0 | 1.7 | 0.00 | 0.00 | 0.27 | 98 | 1043.1 |
| 20260508192003 | 59 | 90 | 0.0 | 0.9 | 0.00 | 0.00 | 0.27 | 98 | 2319.1 |
| 20260508191205 | 59 | 45 | 0.9 | 1.7 | 0.00 | 0.00 | 0.27 | 98 | 1041.9 |
| 20260508191005 | 59 | 45 | 0.0 | 1.7 | 0.00 | 0.00 | 0.27 | 98 | 1041.6 |
| 20260508190203 | 59 | 135 | 0.9 | 3.5 | 0.00 | 0.00 | 0.27 | 98 | 1040.0 |
| 20260508190003 | 60 | 45 | 0.9 | 3.5 | 0.00 | 0.00 | 0.27 | 98 | 1039.7 |
| 20260508185105 | 59 | 0 | 1.7 | 5.2 | 0.03 | 0.00 | 0.27 | 98 | 1039.2 |
| 20260508185000 | 59 | 90 | 1.7 | 5.2 | 0.03 | 0.00 | 0.27 | 98 | 1039.4 |
| 20260508184204 | 59 | 45 | 3.5 | 4.3 | 0.00 | 0.00 | 0.24 | 98 | 1040.0 |
| 20260508184003 | 59 | 180 | 0.9 | 4.3 | 0.00 | 0.00 | 0.24 | 98 | 1040.4 |
| 20260508183205 | 59 | 135 | 2.6 | 7.8 | 0.00 | 0.00 | 0.24 | 98 | 1040.1 |
| 20260508183005 | 60 | 45 | 1.7 | 5.2 | 0.00 | 0.00 | 0.24 | 98 | 1039.9 |
| 20260508182203 | 60 | 0 | 0.9 | 1.7 | 0.00 | 0.00 | 0.24 | 98 | 1039.7 |
| 20260508182003 | 60 | 90 | 1.7 | 7.0 | 0.00 | 0.00 | 0.24 | 98 | 572.6 |
| 20260508181205 | 59 | 0 | 0.9 | 3.5 | 0.00 | 0.00 | 0.24 | 98 | 1040.5 |
| 20260508181005 | 60 | 90 | 1.7 | 7.0 | 0.00 | 0.00 | 0.24 | 98 | 1040.5 |
| 20260508180203 | 59 | 315 | 0.9 | 3.5 | 0.00 | 0.00 | 0.24 | 98 | 1040.7 |
| 20260508180003 | 59 | 135 | 1.7 | 5.2 | 0.00 | 0.00 | 0.24 | 98 | 1040.7 |
| 20260508175205 | 59 | 135 | 2.6 | 3.5 | 0.02 | 0.00 | 0.24 | 98 | 1041.2 |
| 20260508175005 | 59 | 90 | 1.7 | 4.3 | 0.02 | 0.00 | 0.24 | 98 | 1041.2 |
| 20260508174105 | 59 | 0 | 1.7 | 4.3 | 0.02 | 0.00 | 0.24 | 98 | 1041.5 |
| 20260508174001 | 59 | 45 | 1.7 | 7.8 | 0.02 | 0.00 | 0.24 | 98 | 1041.5 |
| 20260508173204 | 59 | 180 | 0.9 | 3.5 | 0.01 | 0.00 | 0.23 | 98 | 1041.4 |
| 20260508173004 | 59 | 0 | 2.6 | 7.8 | 0.01 | 0.00 | 0.23 | 98 | 1041.3 |
| 20260508172222 | 59 | 135 | 1.7 | 3.5 | 0.01 | 0.00 | 0.23 | 98 | 1040.8 |
| 20260508172004 | 59 | 180 | 2.6 | 5.2 | 0.01 | 0.00 | 0.23 | 98 | 1040.8 |
| 20260508171105 | 59 | 45 | 1.7 | 7.0 | 0.01 | 0.00 | 0.23 | 98 | 1040.8 |
| 20260508171001 | 59 | 135 | 2.6 | 7.8 | 0.01 | 0.00 | 0.23 | 98 | 1040.9 |
| 20260508170204 | 59 | 90 | 3.5 | 7.0 | 0.01 | 0.00 | 0.23 | 98 | 1041.2 |
| 20260508170004 | 59 | 45 | 2.6 | 7.8 | 0.00 | 0.00 | 0.22 | 98 | 1041.3 |
| 20260508165204 | 59 | 45 | 1.7 | 4.3 | 0.02 | 0.00 | 0.20 | 98 | 1041.8 |
| 20260508165004 | 59 | 90 | 2.6 | 7.0 | 0.02 | 0.00 | 0.20 | 98 | 1041.8 |
| 20260508164205 | 59 | 135 | 3.5 | 5.2 | 0.02 | 0.00 | 0.20 | 98 | 1041.5 |
| 20260508164005 | 59 | 180 | 2.6 | 13.0 | 0.02 | 0.00 | 0.20 | 98 | 1041.3 |
| 20260508163203 | 59 | 90 | 2.6 | 3.5 | 0.01 | 0.00 | 0.19 | 98 | 1041.7 |
| 20260508163003 | 59 | 45 | 1.7 | 4.3 | 0.01 | 0.00 | 0.19 | 98 | 1041.8 |
| 20260508162203 | 59 | 135 | 1.7 | 5.2 | 0.01 | 0.00 | 0.19 | 98 | 568.6 |
| 20260508162003 | 59 | 180 | 3.5 | 7.8 | 0.01 | 0.00 | 0.19 | 98 | 1042.3 |
| 20260508161205 | 59 | 90 | 3.5 | 7.8 | 0.01 | 0.00 | 0.19 | 98 | 1042.5 |
| 20260508160204 | 58 | 45 | 4.3 | 7.8 | 0.00 | 0.00 | 0.18 | 98 | 1043.7 |
| 20260508160004 | 58 | 135 | 3.5 | 13.0 | 0.00 | 0.00 | 0.18 | 98 | 1043.6 |
| 20260508155105 | 59 | 90 | 4.3 | 13.0 | 0.15 | 0.00 | 0.17 | 98 | 1043.3 |
| 20260508155001 | 59 | 180 | 3.5 | 7.0 | 0.15 | 0.00 | 0.17 | 98 | 1043.1 |
| 20260508154204 | 59 | 90 | 1.7 | 4.3 | 0.15 | 0.00 | 0.17 | 98 | 1042.8 |
| 20260508154004 | 59 | 135 | 2.6 | 7.8 | 0.15 | 0.00 | 0.17 | 98 | 1042.7 |
| 20260508153105 | 59 | 90 | 3.5 | 9.6 | 0.15 | 0.00 | 0.17 | 98 | 1042.5 |
| 20260508153001 | 59 | 180 | 3.5 | 7.8 | 0.15 | 0.00 | 0.17 | 98 | 1042.4 |
| 20260508152204 | 59 | 315 | 2.6 | 4.3 | 0.15 | 0.00 | 0.17 | 98 | 1042.7 |
| 20260508152004 | 59 | 90 | 4.3 | 11.3 | 0.14 | 0.00 | 0.16 | 98 | 1042.7 |
| 20260508151105 | 59 | 90 | 2.6 | 5.2 | 0.08 | 0.00 | 0.10 | 98 | 1044.6 |
| 20260508151001 | 59 | 90 | 3.5 | 10.4 | 0.05 | 0.00 | 0.07 | 98 | 1045.0 |
| 20260508150204 | 59 | 90 | 4.3 | 7.0 | 0.01 | 0.00 | 0.03 | 98 | 546.6 |
| 20260508150004 | -9 | 0 | 1.7 | 7.0 | 0.00 | 0.00 | 0.02 | 35 | 788.9 |
| 20260508145205 | 58 | 90 | 2.6 | 4.3 | 0.01 | 0.00 | 0.01 | 98 | 542.7 |
| 20260508145003 | 58 | 135 | 2.6 | 7.0 | 0.00 | 0.00 | 0.00 | 98 | 2442.8 |